Location: *
(6.0000°S, 32.3997°W)
Time: 14:06:45
(UTC+00:00)

Daily predictions for brighter satellites

Satellite Brightness Start Highest point End
(mag) Time Altitude Azimuth Time Altitude Azimuth Time Altitude Azimuth
FengYun 1-2 T 4.4 20:27:19 10° SSE 20:32:44 52° ENE 20:38:03 10° N
Cosmos 1536 Rocket 3.9 20:29:54 10° N 20:34:11 70° W 20:38:30 10° S
Meteor 2-8 Rocket 4.5 20:29:22 10° S 20:35:29 65° E 20:41:34 10° NNE
Cosmos 1707 2.9 20:32:45 10° N 20:36:39 80° W 20:40:34 10° S
Cosmos 1025 Rocket 3.9 20:33:41 10° NNW 20:37:51 54° W 20:42:02 10° S
Cosmos 2278 Rocket 3.6 20:35:26 10° NE 20:39:07 18° ENE 20:42:48 10° ESE
BREEZE-M DEB (TANK) 4.5 20:29:46 10° NW 20:39:14 54° SW 20:42:36 10° SSE
Cosmos 1844 4.0 20:34:45 10° NNW 20:40:29 76° WSW 20:46:17 10° S
ADEOS Rocket 3.8 20:35:47 10° N 20:41:20 53° WNW 20:46:41 10° SSW
STARLINK-60 2.9 20:38:15 10° SSW 20:41:33 81° SE 20:44:49 10° NE
Centaur Rocket 2.1 20:38:47 10° WNW 20:42:36 60° NNE 20:44:28 12° E
Lacrosse 4 Rocket 1.5 20:40:32 10° NNW 20:44:50 84° WSW 20:49:04 10° SSE
Cosmos 1271 Rocket 2.6 20:46:00 10° N 20:49:40 58° E 20:53:23 10° SSE
Cosmos 1242 Rocket 2.4 20:48:14 10° N 20:51:45 76° E 20:55:21 10° S
Envisat 4.4 20:47:39 10° S 20:52:25 42° WSW 20:57:11 10° NNW
Ariane H10 4.1 20:48:46 10° W 20:52:45 66° N 21:09:02 14° E
Cosmos 2315 Rocket 4.1 20:47:07 10° S 20:53:10 53° E 20:59:15 10° NNE
Okean-O 2.7 20:51:14 10° S 20:55:41 81° WSW 21:00:05 10° NNW
GPS 2-12 Rocket1 4.3 20:53:03 10° SW 20:57:09 28° SSE 21:00:06 15° ESE
STARLINK-29 3.7 20:54:34 10° SSW 20:57:28 33° SE 20:59:18 18° ENE
YAOGAN 1 3.0 20:53:28 10° SSE 20:57:32 40° E 21:01:34 10° N
Cosmos 1455 Rocket 4.0 20:53:38 10° SSW 20:57:52 52° W 21:02:03 10° N
CZ-4 R/B 1.3 20:54:10 10° SSE 20:58:06 57° E 21:01:56 10° N
Cosmos 1674 3.2 20:55:03 10° NNE 20:58:24 33° E 21:01:46 10° SSE
Cosmos 1758 3.5 20:55:03 10° SSE 20:58:58 47° E 21:02:53 10° NNE
Meteor 2-5 Rocket 4.3 20:54:20 10° NNE 20:59:14 33° E 21:04:09 10° SSE
Cosmos 1943 3.3 20:54:16 10° S 20:59:44 54° ESE 21:05:12 10° NNE
Cosmos 2251 Rocket 3.5 20:55:33 10° S 21:00:50 76° ESE 21:06:09 10° NNE
In-Cosmos 22 4.1 20:55:56 10° N 21:01:20 86° W 21:06:39 10° S
STARLINK-1169 4.5 20:58:34 10° N 21:02:16 31° ENE 21:04:17 20° ESE
CZ-2D R/B 3.5 20:59:41 10° SSE 21:03:23 43° E 21:07:00 10° N
STARLINK-1178 4.3 21:03:26 10° N 21:07:15 36° ENE 21:09:06 24° ESE
Atlas 2A Centaur Rocket 2.6 21:08:43 10° NNW 21:10:02 16° NNE 21:10:02 16° NNE
Cosmos 1420 Rocket 4.2 21:05:56 10° NNW 21:11:05 75° WSW 21:16:15 10° S
Cosmos 1939 Rocket 2.8 21:07:57 10° SSE 21:12:02 69° E 21:16:01 10° N
CZ-2C R/B 4.2 21:07:56 10° NE 21:12:06 35° ESE 21:16:14 10° SSE
STARLINK-1120 4.0 21:08:17 10° NNW 21:12:12 42° ENE 21:13:53 28° ESE
CSL-04 Rocket 3.8 21:07:05 10° SSE 21:12:19 49° ENE 21:17:26 10° N
KORONAS-FOTON 3.8 21:10:01 10° N 21:13:40 54° E 21:17:22 10° SSE
Ariane H10+ 4.2 21:03:42 10° W 21:15:08 72° N 21:19:27 25° E
STARLINK-1131 3.8 21:13:11 10° NNW 21:17:11 49° NE 21:18:42 32° ESE
SL-24 R/B - RUBIN 2 4.2 21:13:34 10° S 21:17:37 35° ESE 21:19:01 29° ENE
SL-08 ROCKET BODY 4.5 21:12:02 10° NNE 21:17:44 50° E 21:23:23 10° SSE
STARLINK-1190 3.7 21:18:05 10° NNW 21:22:09 57° ENE 21:23:28 38° ESE
NOAA 11 4.4 21:20:23 10° S 21:25:47 71° WSW 21:31:11 10° NNW
Lacrosse 5 4.4 21:26:09 10° WNW 21:29:48 20° WSW 21:33:28 10° S
Cosmos 1892 Rocket 3.5 21:30:31 10° N 21:34:59 90° SE 21:39:27 10° S
FALCON 9 DEB 3.6 21:33:24 10° SW 21:36:52 59° NW 21:37:33 47° N
Cosmos 1953 2.1 21:34:15 10° S 21:38:14 84° E 21:42:10 10° N
STARLINK-52 3.4 21:35:17 10° SW 21:38:20 59° WNW 21:38:20 59° WNW
Cosmos 1709 Rocket 4.1 21:35:12 10° NNE 21:40:58 45° E 21:41:32 44° ESE
Skynet4D Del rocket 4.3 21:38:13 10° SW 21:43:10 34° SSE 21:43:17 34° SSE
Meteor 1-16 Rocket 4.0 21:40:22 10° S 21:45:38 61° E 21:46:39 51° NE
Delta 168 3.4 21:46:04 10° WNW 21:50:16 71° SSW 21:51:03 60° SSE
GPS 2-04 Rocket1 3.1 21:47:25 10° WSW 21:51:03 62° WNW 21:51:03 62° WNW
USA 229 DEB 4.1 21:45:07 10° NNW 21:52:48 76° WSW 22:00:07 11° SSE
USA 229 4.0 21:45:13 10° NNW 21:52:54 77° WSW 22:00:06 12° SSE
Okean 1-7 Rocket 4.2 21:51:08 10° NNW 21:55:26 55° W 21:59:47 10° S
NOSS 3-1 (A) 4.2 21:52:46 10° NNW 22:01:39 81° ENE 22:06:29 32° SSE
CZ-2C R/B 3.7 22:11:24 34° SSW 22:11:24 34° SSW 22:14:21 10° SSW
H-2A R/B 4.4 22:23:50 14° N 22:23:50 14° N 22:24:28 10° N
ATLAS 5 CENTAUR R/B 3.5 22:17:19 10° SW 22:19:53 25° W 22:19:53 25° W
Atlas Centaur 2 3.6 22:17:32 10° NW 22:20:01 25° NNW 22:20:01 25° NNW
Cosmos 2278 Rocket 3.8 22:17:53 10° NW 22:22:51 32° WSW 22:27:05 13° SSW
Ariane H10+ 3.5 22:24:15 10° W 22:28:02 29° W 22:28:02 29° W
VEP-3 4.5 14:00:31 10° WNW 23:02:52 66° SSE 23:03:08 66° SSE
